ATLAS 5 CENTAUR DEB, 49341

Orbit data source: Space-Track

ATLAS 5 CENTAUR DEB, 49341 is space debris in HEO originally from a launch on Wed, 17 Oct 2018 UTC launched from the Air Force Eastern Test Range (AFETR). Debris objects in space refer to the collection of defunct objects orbiting the Earth. Examples of debris include non-operational satellites, rocket bodies, and fragments generated from explosions, collisions, or faulty payload assembly.

Loading next visibility...
Identifier
49341, 2018-079ES
Orbit
HEO
Country
Flag of USUS
Related business
Flag of USUnited Launch Alliance/Lockheed Martin (US)
Manufacturer
ULA Decatur
Mission
Spacecraft
Bus & Motor
Unknown
Mass
Unknown
Launch date (UTC)
2018-10-17 (7 years ago)
Launch vehicle
Unknown
Launch site
Air Force Eastern Test Range (AFETR)
Object type
Payload
Rocket body
Debris
Shape & HBR
Unknown shape, 1.1 m
Radar Cross Section
Small (<0.1 m²)

Expand to show TLE details & history
Last TLE update: 12 hours ago

TLE from 12 hours ago
0 ATLAS 5 CENTAUR DEB
1 49341U 18079ES  26034.57118369 -.00000159  00000-0  00000-0 0  9997
2 49341  13.5435  57.7441 4655869 259.5919  46.4643  1.75094084 28369
Epoch: 2026-02-03T13:42Z
TLE epoch observation values (Epoch: 2026-02-03T13:42:30.270Z)
Latitude
0.00001°
Longitude
78.48097°
Altitude
18,482.757 km
Speed
4.285 km/s
True Right ascension
03h 51m 25s
True Declination
0° 00' 00"
Sunlit
Object was in daylight at epoch
Visualization orbit readout
Latitude
Unknown
Longitude
Unknown
Altitude
Unknown
Speed
Unknown
Apparent Right ascension
Unknown
Apparent Declination
Unknown
Sunlit
N/A
Visualization observer readout
Local Sidereal Time
03:13:35
Azimuth
Unknown
Elevation
Unknown
Doppler factor
Unknown
Orbital elements
Apogee altitude
36,240.15 km
Perigee altitude
9,162.238 km
Semi-major axis
29,079.331 km
Eccentricity
0.46559
Inclination
13.5435°
RAAN
57.7441°
Arg. of periapsis
259.5919°
True anomaly
100.3379°
Mean anomaly
46.4643°
Eccentric anomaly
71.80692°
Mean motion
0.43769 °/min
Orbital period
822.5 mins
BSTAR
0
Loading maneuver chart data...
Computing Atmospheric mass density...

Documentation

Showing up to 5 results
|